Volver al catálogo

TITAN 3C TRANSTAGE DEB

ActivoLEO
NORAD 1671·DEBRIS·🇺🇸 United States

Lanzado Oct 15, 1965 desde Cape Canaveral Space Force Station

Loading…

Próximos Pases (próximas 24 horas)

TLE

ActualizadoSource: Space-Track

Época: Sep 14, 2026, 08:30 UTC

1 01671U 65082AJ  26257.35462341  .00000361  00000-0  74436-4 0  9994
2 01671  32.1604 253.0557 0052179 303.8397  55.7287 14.54055047199386

Sigue TITAN 3C TRANSTAGE DEB en tiempo real con AllMySat

Download on the App Store